This is the latest recevied weather packets stored in our database for station/object K4AVM-13. If no packets are shown the sender has not sent any weather packets the latest 10 day(s).
| Time | Temp. | Humidity | Pressure | Rain* | Wind** | Luminosity | Snow |
|---|---|---|---|---|---|---|---|
| 1778158734 | 13.89° C | 83% | 1013.4 hPa | 0 mm | - | 148 W/m² | - |
| 1778158431 | 13.89° C | 82% | 1013.2 hPa | 0 mm | - | 65 W/m² | - |
| 1778158129 | 13.89° C | 84% | 1013.5 hPa | 0 mm | - | 130 W/m² | - |
| 1778157825 | 13.89° C | 85% | 1013.2 hPa | 0 mm | - | 85 W/m² | - |
| 1778157524 | 13.89° C | 90% | 1013.2 hPa | 0 mm | - | 61 W/m² | - |
| 1778157220 | 13.89° C | 91% | 1013.4 hPa | 0 mm | - | 47 W/m² | - |
| 1778156917 | 13.89° C | 92% | 1013.1 hPa | 0 mm | - | 43 W/m² | - |
| 1778156612 | 13.89° C | 92% | 1013 hPa | 0 mm | - | 52 W/m² | - |
| 1778156309 | 13.89° C | 92% | 1012.8 hPa | 0 mm | - | 71 W/m² | - |
| 1778156004 | 13.89° C | 92% | 1013 hPa | 0 mm | - | 51 W/m² | - |
| 1778155701 | 13.89° C | 92% | 1012.8 hPa | 0 mm | - | 41 W/m² | - |
| 1778155397 | 13.89° C | 92% | 1013.3 hPa | 0 mm | - | 27 W/m² | - |
| 1778155094 | 13.89° C | 92% | 1013.2 hPa | 0 mm | - | 25 W/m² | - |
| 1778154789 | 13.89° C | 92% | 1012.9 hPa | 0 mm | - | 29 W/m² | - |
| 1778154485 | 13.89° C | 91% | 1013.3 hPa | 0 mm | - | 30 W/m² | - |
| 1778154183 | 13.33° C | 91% | 1013.2 hPa | 0 mm | - | 26 W/m² | - |
| 1778153880 | 13.33° C | 91% | 1013.1 hPa | 0 mm | - | 21 W/m² | - |
| 1778153577 | 13.33° C | 92% | 1013 hPa | 0 mm | - | 20 W/m² | - |
| 1778153274 | 13.33° C | 93% | 1012.8 hPa | 0 mm | - | 21 W/m² | - |
| 1778152971 | 13.33° C | 93% | 1012.8 hPa | 0 mm | - | 16 W/m² | - |
| 1778152669 | 13.33° C | 94% | 1012.6 hPa | 0 mm | - | 13 W/m² | - |
| 1778152365 | 13.33° C | 95% | 1012.7 hPa | 0 mm | - | 9 W/m² | - |
| 1778152061 | 13.33° C | 95% | 1012.9 hPa | 0 mm | - | 7 W/m² | - |
| 1778151758 | 13.33° C | 95% | 1012.7 hPa | 0 mm | - | 7 W/m² | - |
| 1778151455 | 13.33° C | 96% | 1012.5 hPa | 0 mm | - | 10 W/m² | - |
* Rain latest hour (hover to see other rain measurements)
** Current wind speed in m/s (hover to see current wind gust speed)